Regional Weather Roundup
Issued by NWS Bismarck, ND

Home | Current Version | Previous Version | Text Only | Print | Product List | Glossary On
Versions: 1 2 3 4 5 6 7 8 9 10 11 12 13 14 15 16 17 18 19 20 21 22 23 24 25 26 27 28 29 30 31 32 33 34 35 36 37 38 39 40 41 42 43 44 45 46 47 48 49 50
848
ASUS43 KBIS 252110
RWRBIS

NWR BROADCAST TEXT
NATIONAL WEATHER SERVICE BISMARCK ND
400 PM CDT SUN SEP 25 2016

NOTE: "FAIR" INDICATES FEW OR NO CLOUDS BELOW 12,000 FEET WITH NO
SIGNIFICANT WEATHER AND/OR OBSTRUCTIONS TO VISIBILITY.


CITY           SKY/WX    TMP DP  RH WIND       PRES   REMARKS
WILLISTON      SUNNY     64  32  30 NW28G37   30.19S
MINOT          MOSUNNY   63  34  33 W38G47    30.05R
MINOT AFB      SUNNY     61  36  39 NW30G40   30.02S
BISMARCK       MOSUNNY   65  33  30 NW24G39   30.12R
DICKINSON      SUNNY     61  28  28 NW25G41   30.18S
GARRISON         N/A     62  34  35 NW31G40   30.08S
HETTINGER ARPT MOSUNNY   63  31  30 NW26G39   30.23S
JAMESTOWN      PTSUNNY   62  38  40 NW33G48   29.98R
CARRINGTON     MOCLDY    63  36  36 NW32G44   30.00R
HAZEN          FAIR      63  32  31 NW25G37   30.14S
LINTON         FAIR      64  37  36 NW26G37   30.13S
MANDAN         FAIR      63  32  31 NW23G33   30.12S
RUGBY          FAIR      59  36  41 NW32G41   29.96S
STANLEY        FAIR      61  30  31 NW24G37   30.14S
WATFORD CITY   FAIR      61  32  33 NW25G33   30.18F
$$

CITY           SKY/WX    TMP DP  RH WIND       PRES   REMARKS
GRAND FORKS    LGT RAIN  55  49  80 NW24G36   29.85R
GRAND FORKS AF LGT RAIN  54  48  80 NW22G32   29.87R
DEVILS LAKE    CLOUDY    59  40  49 NW32G44   29.92R
FARGO          LGT RAIN  58  45  62 NW33G40   29.91R
CANDO          MOCLDY    57  41  54 NW29G36   29.95R
CAVALIER       LGT RAIN  52  48  87 W20G29    29.82R
GRAFTON        DRIZZLE   52  52 100 W29G41    29.86R
GWINNER        MOCLDY    64  39  39 NW28G36   29.98R
LANGDON        DRIZZLE   52  48  87 NW23G32   29.88R
ROLLA          MOCLDY    55  39  54 NW26G43   29.94R
WALHALLA       LGT RAIN  50  46  87 NW14G29   29.84R
$$

CITY           SKY/WX    TMP DP  RH WIND       PRES   REMARKS
ABERDEEN       MOSUNNY   66  35  31 NW28G39   30.05R
MOBRIDGE       MOSUNNY   66  34  30 NW28G37   30.12R
BUFFALO          N/A     63  34  33 NW29G39   30.20F
RAPID CITY     SUNNY     64  30  27 N24G33    30.30F
GLASGOW        SUNNY     66  38  35 W21G28    30.24F
SIDNEY         PTSUNNY   67  37  33 W24G33    30.20F
WOLF POINT     SUNNY     68  36  30 W15G29    30.23F
GLENDIVE       MOSUNNY   64  37  36 NW20      30.25F
MILES CITY     SUNNY     66  36  32 W16       30.28F
BAKER          SUNNY     62  36  37 NW23G32   30.28F
$$

CITY           SKY/WX    TMP DP  RH WIND       PRES   REMARKS
BILLINGS       MOSUNNY   65  36  34 SW8G29    30.31F
GREAT FALLS    SUNNY     67  33  28 SW21G28   30.27F
REGINA         MOSUNNY   61  34  36 NW23G32   30.13F
ESTEVAN        MOSUNNY   63  34  34 NW29G41   30.11R
$$





USA.gov is the U.S. government's official web portal to all federal, state and local government web resources and services.